This is the latest recevied weather packets stored in our database for station/object M7PDA-1. If no packets are shown the sender has not sent any weather packets the latest 10 day(s).
| Time | Temp. | Humidity | Pressure | Rain* | Wind** | Luminosity | Snow |
|---|---|---|---|---|---|---|---|
| 1787686889 | 17.78° C | 56% | 1015.9 hPa | - | - | - | - |
| 1787685988 | 17.78° C | 56% | 1015.8 hPa | - | - | - | - |
| 1787685087 | 18.33° C | 54% | 1015.7 hPa | - | - | - | - |
| 1787684187 | 18.33° C | 53% | 1015.6 hPa | - | - | - | - |
| 1787683286 | 18.89° C | 53% | 1015.6 hPa | - | - | - | - |
| 1787682385 | 19.44° C | 52% | 1015.6 hPa | - | - | - | - |
| 1787681484 | 19.44° C | 52% | 1015.5 hPa | - | - | - | - |
| 1787680584 | 20° C | 52% | 1015.4 hPa | - | - | - | - |
| 1787679683 | 20° C | 51% | 1015.4 hPa | - | - | - | - |
| 1787678782 | 21.11° C | 50% | 1015.1 hPa | - | - | - | - |
| 1787677881 | 21.67° C | 50% | 1015.2 hPa | - | - | - | - |
| 1787676981 | 22.22° C | 49% | 1015.2 hPa | - | - | - | - |
| 1787676080 | 22.22° C | 49% | 1015.2 hPa | - | - | - | - |
| 1787675179 | 21.67° C | 49% | 1015.3 hPa | - | - | - | - |
| 1787674278 | 22.78° C | 49% | 1015.3 hPa | - | - | - | - |
| 1787673377 | 22.22° C | 48% | 1015.5 hPa | - | - | - | - |
| 1787672477 | 22.78° C | 48% | 1015.4 hPa | - | - | - | - |
| 1787671575 | 22.78° C | 48% | 1015.5 hPa | - | - | - | - |
| 1787670674 | 22.22° C | 47% | 1015.6 hPa | - | - | - | - |
| 1787669774 | 22.78° C | 48% | 1015.7 hPa | - | - | - | - |
| 1787668873 | 21.67° C | 49% | 1015.7 hPa | - | - | - | - |
| 1787667972 | 22.22° C | 49% | 1015.7 hPa | - | - | - | - |
| 1787667071 | 21.67° C | 49% | 1015.9 hPa | - | - | - | - |
| 1787666170 | 22.22° C | 49% | 1016.2 hPa | - | - | - | - |
| 1787665270 | 23.33° C | 48% | 1016 hPa | - | - | - | - |
* Rain since midnight (hover to see other rain measurements)
** Current wind speed in m/s (hover to see current wind gust speed)